| time (UTC) | temp F | wind direction | speed knots | gust knots | rain 1hr in | rain 24hr in | rain mn in | humidity % | barometer mb |
| 20260507001939 | 59 | 285 | 0.9 | 3.5 | 0.14 | 0.87 | 0.31 | 60 | 1006.7 |
| 20260507000937 | 59 | 286 | 0.9 | 3.5 | 0.15 | 0.85 | 0.30 | 60 | 1006.5 |
| 20260506235934 | 60 | 270 | 0.9 | 1.7 | 0.16 | 0.83 | 0.27 | 60 | 1006.6 |
| 20260506234953 | 60 | 270 | 0.9 | 0.9 | 0.14 | 0.80 | 0.24 | 60 | 1006.6 |
| 20260506233930 | 59 | 237 | 0.9 | 0.9 | 0.14 | 0.78 | 0.22 | 60 | 1006.8 |
| 20260506232930 | 59 | 270 | 0.9 | 1.7 | 0.12 | 0.75 | 0.19 | 60 | 1006.5 |
| 20260506231927 | 60 | 270 | 0.9 | 2.6 | 0.13 | 0.73 | 0.17 | 60 | 1006.6 |
| 20260506230926 | 60 | 270 | 0.9 | 0.9 | 0.14 | 0.70 | 0.15 | 60 | 1006.8 |
| 20260506225923 | 60 | 270 | 0.9 | 1.7 | 0.11 | 0.67 | 0.11 | 60 | 1006.9 |
| 20260506224920 | 60 | 270 | 0.9 | 0.9 | 0.10 | 0.65 | 0.10 | 60 | 1006.8 |
| 20260506223918 | 60 | 270 | 0.9 | 0.9 | 0.10 | 0.64 | 0.08 | 60 | 1006.8 |
| 20260506222916 | 60 | 270 | 0.9 | 0.9 | 0.11 | 0.63 | 0.07 | 60 | 1006.7 |
| 20260506221914 | 59 | 270 | 0.9 | 1.7 | 0.10 | 0.60 | 0.04 | 60 | 1006.4 |
| 20260506220913 | 59 | 270 | 0.9 | 1.7 | 0.10 | 0.56 | 0.00 | 60 | 1006.2 |
| 20260506215953 | 59 | 270 | 0.9 | 0.9 | 0.11 | 0.56 | 0.56 | 60 | 1006.1 |
| 20260506214909 | 59 | 270 | 0.9 | 1.7 | 0.11 | 0.55 | 0.55 | 60 | 1006.0 |
| 20260506213906 | 59 | 213 | 0.9 | 2.6 | 0.10 | 0.54 | 0.54 | 60 | 1005.7 |
| 20260506212904 | 59 | 359 | 0.9 | 1.7 | 0.08 | 0.52 | 0.52 | 60 | 1005.8 |
| 20260506211903 | 60 | 210 | 0.9 | 2.6 | 0.06 | 0.50 | 0.50 | 59 | 1005.9 |
| 20260506210900 | 60 | 293 | 0.9 | 1.7 | 0.05 | 0.46 | 0.46 | 59 | 1006.0 |
| 20260506205900 | 60 | 297 | 1.7 | 3.5 | 0.08 | 0.45 | 0.45 | 59 | 1006.4 |
| 20260506204857 | 61 | 315 | 0.9 | 1.7 | 0.10 | 0.44 | 0.44 | 59 | 1006.2 |
| 20260506203854 | 61 | 210 | 0.9 | 0.9 | 0.14 | 0.44 | 0.44 | 59 | 1006.1 |
| 20260506202852 | 61 | 225 | 0.9 | 1.7 | 0.16 | 0.44 | 0.44 | 59 | 1005.8 |
| 20260506201911 | 62 | 191 | 0.9 | 1.7 | 0.17 | 0.43 | 0.43 | 59 | 1005.6 |
| 20260506200848 | 62 | 325 | 0.9 | 1.7 | 0.17 | 0.41 | 0.41 | 59 | 1006.2 |
| 20260506195846 | 62 | 270 | 0.9 | 1.7 | 0.19 | 0.37 | 0.37 | 59 | 1006.4 |
| 20260506194844 | 62 | 315 | 0.9 | 1.7 | 0.21 | 0.34 | 0.34 | 59 | 1006.3 |
| 20260506193842 | 62 | 270 | 0.9 | 1.7 | 0.21 | 0.29 | 0.29 | 59 | 1006.3 |
| 20260506192841 | 62 | 315 | 0.9 | 1.7 | 0.22 | 0.27 | 0.27 | 58 | 1006.2 |
| 20260506191838 | 62 | 45 | 1.7 | 3.5 | 0.23 | 0.26 | 0.26 | 58 | 1006.3 |
| 20260506190836 | 63 | 73 | 1.7 | 4.3 | 0.21 | 0.23 | 0.23 | 57 | 1006.0 |
| 20260506185834 | 64 | 241 | 1.7 | 3.5 | 0.17 | 0.18 | 0.18 | 57 | 1005.9 |
| 20260506184832 | 65 | 250 | 0.9 | 2.6 | 0.11 | 0.13 | 0.13 | 57 | 1006.0 |
| 20260506183831 | 66 | 316 | 1.7 | 3.5 | 0.08 | 0.09 | 0.09 | 56 | 1005.6 |
| 20260506182828 | 67 | 226 | 1.7 | 2.6 | 0.04 | 0.06 | 0.06 | 56 | 1005.6 |
| 20260506181826 | 68 | 231 | 1.7 | 2.6 | 0.01 | 0.02 | 0.02 | 55 | 1005.3 |
| 20260506180825 | 69 | 237 | 1.7 | 1.7 | 0.01 | 0.02 | 0.02 | 55 | 1005.3 |
| 20260506175822 | 69 | 243 | 1.7 | 2.6 | 0.00 | 0.02 | 0.02 | 54 | 1005.3 |
| 20260506174820 | 70 | 228 | 1.7 | 1.7 | 0.00 | 0.02 | 0.02 | 54 | 1005.0 |
| 20260506173818 | 70 | 223 | 1.7 | 2.6 | 0.00 | 0.01 | 0.01 | 53 | 1004.5 |
| 20260506172816 | 71 | 230 | 1.7 | 2.6 | 0.00 | 0.01 | 0.01 | 52 | 1004.2 |
| 20260506171814 | 72 | 251 | 1.7 | 3.5 | 0.00 | 0.01 | 0.01 | 51 | 1004.4 |
| 20260506170813 | 73 | 281 | 1.7 | 6.1 | 0.00 | 0.01 | 0.01 | 51 | 1004.2 |
| 20260506165851 | 74 | 259 | 1.7 | 5.2 | 0.00 | 0.01 | 0.01 | 51 | 1004.2 |
| 20260506164808 | 75 | 225 | 0.9 | 1.7 | 0.00 | 0.01 | 0.01 | 51 | 1004.0 |
| 20260506163806 | 75 | 232 | 0.9 | 2.6 | 0.00 | 0.01 | 0.01 | 51 | 1004.0 |
| 20260506162804 | 75 | 222 | 0.9 | 1.7 | 0.00 | 0.01 | 0.01 | 51 | 1004.0 |
| 20260506161803 | 75 | 229 | 0.9 | 1.7 | 0.00 | 0.01 | 0.01 | 51 | 1004.1 |
| 20260506160820 | 75 | 225 | 0.9 | 2.6 | 0.00 | 0.01 | 0.01 | 51 | 1004.3 |
| 20260506155758 | 75 | 225 | 0.9 | 1.7 | 0.00 | 0.01 | 0.01 | 51 | 1004.1 |
| 20260506154756 | 74 | 225 | 0.9 | 3.5 | 0.00 | 0.01 | 0.01 | 51 | 1004.2 |
| 20260506153756 | 74 | 237 | 1.7 | 3.5 | 0.00 | 0.01 | 0.01 | 51 | 1004.1 |
| 20260506152814 | 75 | 222 | 0.9 | 1.7 | 0.00 | 0.01 | 0.01 | 51 | 1004.3 |
| 20260506151750 | 75 | 220 | 0.9 | 2.6 | 0.00 | 0.01 | 0.01 | 51 | 1004.4 |
| 20260506150749 | 75 | 225 | 0.9 | 1.7 | 0.00 | 0.01 | 0.01 | 51 | 1004.4 |
| 20260506145747 | 75 | 220 | 0.9 | 1.7 | 0.00 | 0.01 | 0.01 | 51 | 1004.6 |
| 20260506144744 | 75 | 237 | 1.7 | 3.5 | 0.00 | 0.01 | 0.01 | 51 | 1004.7 |
| 20260506143742 | 75 | 227 | 1.7 | 5.2 | 0.00 | 0.01 | 0.01 | 52 | 1004.7 |
| 20260506142741 | 75 | 225 | 0.9 | 2.6 | 0.00 | 0.01 | 0.01 | 52 | 1004.9 |
| 20260506141738 | 75 | 225 | 0.9 | 3.5 | 0.00 | 0.01 | 0.01 | 52 | 1005.0 |
| 20260506140736 | 75 | 225 | 0.9 | 3.5 | 0.00 | 0.01 | 0.01 | 52 | 1005.0 |
| 20260506135736 | 76 | 225 | 1.7 | 3.5 | 0.00 | 0.01 | 0.01 | 52 | 1005.1 |
| 20260506134733 | 76 | 220 | 0.9 | 3.5 | 0.00 | 0.01 | 0.01 | 52 | 1005.2 |
| 20260506133750 | 76 | 218 | 0.9 | 1.7 | 0.00 | 0.01 | 0.01 | 52 | 1005.1 |
| 20260506132748 | 76 | 214 | 0.9 | 2.6 | 0.00 | 0.01 | 0.01 | 52 | 1005.2 |
| 20260506131746 | 76 | 214 | 0.9 | 2.6 | 0.00 | 0.01 | 0.01 | 52 | 1005.3 |
| 20260506130725 | 76 | 216 | 0.9 | 1.7 | 0.00 | 0.01 | 0.01 | 52 | 1005.3 |
| 20260506125744 | 76 | 228 | 0.9 | 3.5 | 0.00 | 0.01 | 0.01 | 52 | 1005.3 |
| 20260506124721 | 76 | 219 | 0.9 | 3.5 | 0.00 | 0.01 | 0.01 | 52 | 1005.2 |
| 20260506123740 | 76 | 225 | 0.9 | 3.5 | 0.00 | 0.01 | 0.01 | 52 | 1005.3 |
| 20260506122717 | 76 | 215 | 0.9 | 1.7 | 0.00 | 0.01 | 0.01 | 52 | 1005.1 |
| 20260506121715 | 76 | 242 | 0.9 | 5.2 | 0.00 | 0.01 | 0.01 | 52 | 1005.2 |
| 20260506120712 | 76 | 225 | 0.9 | 3.5 | 0.00 | 0.01 | 0.01 | 53 | 1005.3 |
| 20260506115711 | 77 | 225 | 0.9 | 1.7 | 0.00 | 0.01 | 0.01 | 53 | 1005.2 |
| 20260506114709 | 77 | 225 | 0.9 | 4.3 | 0.00 | 0.01 | 0.01 | 53 | 1005.3 |
| 20260506113706 | 77 | 270 | 0.9 | 5.2 | 0.00 | 0.01 | 0.01 | 53 | 1005.1 |
| 20260506112704 | 77 | 270 | 0.9 | 1.7 | 0.00 | 0.01 | 0.01 | 54 | 1005.1 |
| 20260506111723 | 75 | 186 | 0.9 | 3.5 | 0.00 | 0.01 | 0.01 | 55 | 1005.2 |
| 20260506110701 | 74 | 270 | 0.9 | 2.6 | 0.00 | 0.01 | 0.01 | 55 | 1005.2 |
| 20260506105658 | 73 | 225 | 0.9 | 5.2 | 0.00 | 0.01 | 0.01 | 55 | 1005.2 |
| 20260506104718 | 73 | 219 | 0.9 | 2.6 | 0.00 | 0.01 | 0.01 | 55 | 1005.2 |
| 20260506103654 | 72 | 315 | 1.7 | 5.2 | 0.00 | 0.01 | 0.01 | 55 | 1005.2 |
| 20260506102655 | 71 | 270 | 0.9 | 2.6 | 0.00 | 0.01 | 0.01 | 56 | 1005.2 |
| 20260506101650 | 71 | 227 | 0.9 | 3.5 | 0.00 | 0.01 | 0.01 | 55 | 1005.3 |
| 20260506100649 | 71 | 239 | 0.9 | 2.6 | 0.00 | 0.01 | 0.01 | 55 | 1005.4 |
| 20260506095646 | 71 | 249 | 0.9 | 3.5 | 0.00 | 0.01 | 0.01 | 55 | 1005.5 |
| 20260506094646 | 71 | 245 | 1.7 | 2.6 | 0.00 | 0.01 | 0.01 | 55 | 1005.4 |
| 20260506093642 | 72 | 220 | 0.9 | 1.7 | 0.00 | 0.01 | 0.01 | 55 | 1005.3 |
| 20260506092641 | 72 | 260 | 1.7 | 5.2 | 0.00 | 0.01 | 0.01 | 56 | 1005.2 |
| 20260506091640 | 71 | 222 | 0.9 | 1.7 | 0.00 | 0.01 | 0.01 | 56 | 1005.3 |
| 20260506090637 | 71 | 225 | 0.9 | 1.7 | 0.00 | 0.01 | 0.01 | 56 | 1005.3 |
| 20260506085635 | 71 | 235 | 0.9 | 1.7 | 0.00 | 0.01 | 0.01 | 56 | 1005.3 |
| 20260506084633 | 71 | 315 | 0.9 | 0.9 | 0.00 | 0.01 | 0.01 | 56 | 1005.2 |
| 20260506083630 | 70 | 323 | 0.9 | 1.7 | 0.00 | 0.01 | 0.01 | 57 | 1005.1 |
| 20260506082628 | 69 | 304 | 0.9 | 1.7 | 0.00 | 0.01 | 0.01 | 57 | 1005.1 |
| 20260506081626 | 69 | 270 | 0.9 | 2.6 | 0.00 | 0.01 | 0.01 | 57 | 1005.1 |
| 20260506080627 | 68 | 315 | 0.9 | 1.7 | 0.00 | 0.01 | 0.01 | 57 | 1005.3 |
| 20260506072617 | 65 | 308 | 0.9 | 2.6 | 0.00 | 0.01 | 0.01 | 58 | 1004.8 |
| 20260506071614 | 64 | 306 | 0.9 | 1.7 | 0.00 | 0.01 | 0.01 | 58 | 1004.9 |
| 20260506070612 | 64 | 308 | 0.9 | 1.7 | 0.00 | 0.01 | 0.01 | 58 | 1005.0 |
| 20260506061605 | 60 | 315 | 0.9 | 1.7 | 0.00 | 0.01 | 0.01 | 58 | 1004.8 |
| 20260506060601 | 60 | 270 | 0.9 | 1.7 | 0.00 | 0.01 | 0.01 | 58 | 1004.8 |
| 20260506050610 | 59 | 359 | 0.9 | 0.9 | 0.01 | 0.01 | 0.01 | 57 | 1004.5 |
| 20260506044546 | 59 | 53 | 0.9 | 0.9 | 0.01 | 0.01 | 0.01 | 57 | 1004.2 |
| 20260506043543 | 59 | 30 | 0.9 | 0.9 | 0.00 | 0.00 | 0.00 | 57 | 1004.0 |
| 20260506042543 | 59 | 0 | 0.9 | 0.9 | 0.00 | 0.00 | 0.00 | 57 | 1004.2 |
| 20260506041559 | 59 | 45 | 0.9 | 0.9 | 0.00 | 0.00 | 0.00 | 57 | 1004.2 |
| 20260506040536 | 59 | 37 | 0.9 | 0.9 | 0.00 | 0.00 | 0.00 | 56 | 1004.2 |
| 20260506035557 | 59 | 45 | 0.9 | 0.9 | 0.00 | 0.00 | 0.00 | 56 | 1004.2 |
| 20260506034533 | 59 | 45 | 0.9 | 0.9 | 0.00 | 0.00 | 0.00 | 56 | 1003.9 |
| 20260506033530 | 59 | 45 | 0.9 | 0.9 | 0.00 | 0.00 | 0.00 | 56 | 1003.6 |
| 20260506032530 | 60 | 18 | 0.9 | 0.9 | 0.00 | 0.00 | 0.00 | 56 | 1003.7 |
| 20260506031527 | 60 | 30 | 0.9 | 0.9 | 0.00 | 0.00 | 0.00 | 56 | 1003.5 |
| 20260506030524 | 60 | 32 | 0.9 | 0.9 | 0.00 | 0.00 | 0.00 | 56 | 1003.7 |
| 20260506025522 | 60 | 45 | 0.9 | 0.9 | 0.00 | 0.00 | 0.00 | 56 | 1003.8 |
| 20260506024521 | 60 | 45 | 0.9 | 0.9 | 0.00 | 0.00 | 0.00 | 56 | 1004.0 |
| 20260506023519 | 61 | 26 | 0.9 | 0.9 | 0.00 | 0.00 | 0.00 | 56 | 1004.3 |
| 20260506022516 | 61 | 30 | 0.9 | 0.9 | 0.00 | 0.00 | 0.00 | 55 | 1004.4 |
| 20260506021536 | 61 | 45 | 0.9 | 0.9 | 0.00 | 0.00 | 0.00 | 55 | 1004.4 |
| 20260506020513 | 61 | 30 | 0.9 | 0.9 | 0.00 | 0.00 | 0.00 | 55 | 1004.2 |
| 20260506015512 | 62 | 26 | 0.9 | 0.9 | 0.00 | 0.00 | 0.00 | 55 | 1004.4 |
| 20260506014508 | 62 | 11 | 0.9 | 0.9 | 0.00 | 0.00 | 0.00 | 55 | 1004.3 |
| 20260506013507 | 62 | 18 | 0.9 | 1.7 | 0.00 | 0.00 | 0.00 | 55 | 1004.5 |
| 20260506012505 | 62 | 0 | 0.9 | 0.9 | 0.00 | 0.00 | 0.00 | 55 | 1004.4 |
| 20260506011504 | 63 | 18 | 0.9 | 0.9 | 0.00 | 0.00 | 0.00 | 55 | 1004.4 |
| 20260506010000 | 63 | 26 | 0.9 | 0.9 | 0.00 | 0.00 | 0.00 | 54 | 1004.3 |
| 20260506004957 | 63 | 14 | 0.9 | 0.9 | 0.00 | 0.00 | 0.00 | 54 | 1004.5 |
| 20260506003956 | 64 | 18 | 0.9 | 0.9 | 0.00 | 0.00 | 0.00 | 54 | 1004.3 |
| 20260506002954 | 64 | 45 | 0.9 | 0.9 | 0.00 | 0.00 | 0.00 | 54 | 1004.3 |